Location: Alladorf
(49.9620°N, 11.3790°E)
Time: 20:11:41
(UTC+00:00)

Cosmos 2112 Rocket - Pass Details

Date: 29 November 2020
Orbit: 756 x 787 km, 74.0° (Epoch: 25 January)

Event Time Altitude Azimuth Distance (km) Brightness Sun altitude
Exits shadow 04:38:53 32° 318° (NW) 1,328 4.8 -20.1°
Maximum altitude 04:41:14 61° 252° (WSW) 896 4.0 -19.7°
Drops below altitude 10° 04:46:28 10° 173° (S) 2,339 6.7 -18.9°
Sets 04:48:52 0° 170° (S) 3,261 7.5 -18.5°
